This is the latest recevied weather packets stored in our database for station/object W0VI. If no packets are shown the sender has not sent any weather packets the latest 10 day(s).
| Time | Temp. | Humidity | Pressure | Rain* | Wind** | Luminosity | Snow |
|---|---|---|---|---|---|---|---|
| 1787782000 | 26.67° C | 50% | 1015.5 hPa | 0 mm | - | 305 W/m² | - |
| 1787781695 | 27.22° C | 49% | 1015.4 hPa | 0 mm | - | 224 W/m² | - |
| 1787781392 | 27.22° C | 50% | 1015.4 hPa | 0 mm | - | 286 W/m² | - |
| 1787781092 | 27.22° C | 50% | 1015.5 hPa | 0 mm | - | 359 W/m² | - |
| 1787780790 | 26.67° C | 51% | 1015.2 hPa | 0 mm | - | 392 W/m² | - |
| 1787780490 | 26.11° C | 52% | 1015.5 hPa | 0 mm | - | 402 W/m² | - |
| 1787780186 | 26.67° C | 53% | 1015.4 hPa | 0 mm | - | 101 W/m² | - |
| 1787779881 | 26.11° C | 53% | 1015.6 hPa | 0 mm | - | 152 W/m² | - |
| 1787779576 | 26.11° C | 53% | 1015.4 hPa | 0 mm | - | 121 W/m² | - |
| 1787779275 | 26.11° C | 52% | 1015.5 hPa | 0 mm | - | 402 W/m² | - |
| 1787778970 | 26.67° C | 52% | 1015.3 hPa | 0 mm | - | 363 W/m² | - |
| 1787778666 | 26.67° C | 53% | 1015.3 hPa | 0 mm | - | 447 W/m² | - |
| 1787778361 | 27.22° C | 52% | 1015.2 hPa | 0 mm | - | 480 W/m² | - |
| 1787778058 | 26.67° C | 53% | 1015.2 hPa | 0 mm | - | 459 W/m² | - |
| 1787777756 | 26.67° C | 53% | 1015.5 hPa | 0 mm | - | 134 W/m² | - |
| 1787777454 | 27.22° C | 53% | 1015.2 hPa | 0 mm | - | 206 W/m² | - |
| 1787777154 | 26.67° C | 54% | 1015.3 hPa | 0 mm | - | 548 W/m² | - |
| 1787776852 | 26.67° C | 55% | 1015.4 hPa | 0 mm | - | 488 W/m² | - |
| 1787776551 | 26.11° C | 58% | 1015.5 hPa | 0 mm | - | 492 W/m² | - |
| 1787776249 | 25.56° C | 57% | 1015.2 hPa | 0 mm | - | 216 W/m² | - |
| 1787775949 | 25.56° C | 56% | 1015.4 hPa | 0 mm | - | 496 W/m² | - |
| 1787775644 | 25.56° C | 59% | 1015.6 hPa | 0 mm | - | 111 W/m² | - |
| 1787775342 | 26.11° C | 58% | 1015.3 hPa | 0 mm | - | 196 W/m² | - |
| 1787775037 | 25.56° C | 59% | 1015.6 hPa | 0 mm | - | 559 W/m² | - |
| 1787774736 | 26.11° C | 59% | 1015.4 hPa | 0 mm | - | 582 W/m² | - |
* Rain latest hour (hover to see other rain measurements)
** Current wind speed in m/s (hover to see current wind gust speed)